Time,TemperatureF,DewpointF,PressureIn,WindDirection,WindDirectionDegrees,WindSpeedMPH,WindSpeedGustMPH,Humidity,HourlyPrecipIn,Conditions,Clouds,dailyrainin,SoftwareType,DateUTC
2013-11-10 00:03:00,47.9,35.1,30.25,WSW,254,8.0,9.0,61,0.00,,,0.00,Wunderground v.1.15,2013-11-10 06:03:00,
2013-11-10 00:08:00,48.1,35.3,30.25,West,260,9.0,10.0,61,0.00,,,0.00,Wunderground v.1.15,2013-11-10 06:08:00,
2013-11-10 00:14:00,48.2,35.4,30.25,WNW,285,6.0,9.0,61,0.00,,,0.00,Wunderground v.1.15,2013-11-10 06:14:00,
2013-11-10 00:19:00,47.8,35.4,30.26,WSW,239,10.0,10.0,62,0.00,,,0.00,Wunderground v.1.15,2013-11-10 06:19:00,
2013-11-10 00:25:00,47.3,35.3,30.25,SW,231,11.0,11.0,63,0.00,,,0.00,Wunderground v.1.15,2013-11-10 06:25:00,
2013-11-10 00:30:00,47.4,35.4,30.25,WNW,300,4.0,9.0,63,0.00,,,0.00,Wunderground v.1.15,2013-11-10 06:30:00,
2013-11-10 00:35:00,47.6,35.6,30.25,WSW,242,10.0,10.0,63,0.00,,,0.00,Wunderground v.1.15,2013-11-10 06:35:00,
2013-11-10 00:41:00,48.1,35.7,30.25,WSW,252,10.0,11.0,62,0.00,,,0.00,Wunderground v.1.15,2013-11-10 06:41:00,
2013-11-10 00:46:00,48.1,35.7,30.25,WSW,249,10.0,12.0,62,0.00,,,0.00,Wunderground v.1.15,2013-11-10 06:46:00,
2013-11-10 00:52:00,47.8,35.4,30.25,West,261,8.0,11.0,62,0.00,,,0.00,Wunderground v.1.15,2013-11-10 06:52:00,
2013-11-10 00:58:00,47.7,35.7,30.25,WSW,246,11.0,13.0,63,0.00,,,0.00,Wunderground v.1.15,2013-11-10 06:58:00,
2013-11-10 01:03:00,47.8,35.8,30.25,WSW,252,13.0,13.0,63,0.00,,,0.00,Wunderground v.1.15,2013-11-10 07:03:00,
2013-11-10 01:09:00,48.2,35.8,30.25,WSW,244,12.0,13.0,62,0.00,,,0.00,Wunderground v.1.15,2013-11-10 07:09:00,
2013-11-10 01:14:00,48.3,35.9,30.25,WNW,285,9.0,16.0,62,0.00,,,0.00,Wunderground v.1.15,2013-11-10 07:14:00,
2013-11-10 01:19:00,48.2,35.8,30.25,West,260,12.0,16.0,62,0.00,,,0.00,Wunderground v.1.15,2013-11-10 07:19:00,
2013-11-10 01:25:00,48.1,36.1,30.25,WSW,256,12.0,13.0,63,0.00,,,0.00,Wunderground v.1.15,2013-11-10 07:25:00,
2013-11-10 01:30:00,48.0,36.0,30.25,West,267,11.0,11.0,63,0.00,,,0.00,Wunderground v.1.15,2013-11-10 07:30:00,
2013-11-10 01:36:00,48.0,36.0,30.25,West,260,12.0,14.0,63,0.00,,,0.00,Wunderground v.1.15,2013-11-10 07:36:00,
2013-11-10 01:41:00,48.0,36.4,30.25,West,274,11.0,11.0,64,0.00,,,0.00,Wunderground v.1.15,2013-11-10 07:41:00,
2013-11-10 01:47:00,47.8,36.2,30.24,West,273,11.0,13.0,64,0.00,,,0.00,Wunderground v.1.15,2013-11-10 07:47:00,
2013-11-10 01:53:00,48.0,36.4,30.25,West,279,11.0,13.0,64,0.00,,,0.00,Wunderground v.1.15,2013-11-10 07:53:00,
2013-11-10 01:58:00,47.9,36.3,30.25,West,281,13.0,13.0,64,0.00,,,0.00,Wunderground v.1.15,2013-11-10 07:58:00,
2013-11-10 02:03:00,48.0,36.4,30.25,West,279,13.0,14.0,64,0.00,,,0.00,Wunderground v.1.15,2013-11-10 08:03:00,
2013-11-10 02:08:00,47.9,36.7,30.25,West,279,14.0,15.0,65,0.00,,,0.00,Wunderground v.1.15,2013-11-10 08:08:00,
2013-11-10 02:13:00,47.8,36.6,30.25,WNW,286,12.0,14.0,65,0.00,,,0.00,Wunderground v.1.15,2013-11-10 08:13:00,
2013-11-10 02:18:00,47.6,36.4,30.24,NW,313,14.0,15.0,65,0.00,,,0.00,Wunderground v.1.15,2013-11-10 08:18:00,
2013-11-10 02:23:00,47.4,36.6,30.24,WNW,290,16.0,17.0,66,0.00,,,0.00,Wunderground v.1.15,2013-11-10 08:23:00,
2013-11-10 02:28:00,47.6,36.8,30.24,WNW,302,17.0,19.0,66,0.00,,,0.00,Wunderground v.1.15,2013-11-10 08:28:00,
2013-11-10 02:33:00,47.6,36.8,30.24,NW,309,15.0,19.0,66,0.00,,,0.00,Wunderground v.1.15,2013-11-10 08:33:00,
2013-11-10 02:38:00,47.7,36.9,30.24,WNW,295,12.0,19.0,66,0.00,,,0.00,Wunderground v.1.15,2013-11-10 08:38:00,
2013-11-10 02:43:00,47.7,36.9,30.24,NNW,337,14.0,19.0,66,0.00,,,0.00,Wunderground v.1.15,2013-11-10 08:43:00,
2013-11-10 02:48:00,47.4,36.6,30.24,WNW,291,12.0,19.0,66,0.00,,,0.00,Wunderground v.1.15,2013-11-10 08:48:00,
2013-11-10 02:53:00,47.4,37.0,30.24,WNW,292,14.0,16.0,67,0.00,,,0.00,Wunderground v.1.15,2013-11-10 08:53:00,
2013-11-10 02:58:00,47.3,36.5,30.24,WNW,285,12.0,16.0,66,0.00,,,0.00,Wunderground v.1.15,2013-11-10 08:58:00,
2013-11-10 03:03:00,47.2,36.4,30.24,West,274,11.0,13.0,66,0.00,,,0.00,Wunderground v.1.15,2013-11-10 09:03:00,
2013-11-10 03:08:00,47.3,36.5,30.24,WNW,297,14.0,15.0,66,0.00,,,0.00,Wunderground v.1.15,2013-11-10 09:08:00,
2013-11-10 03:13:00,47.5,36.3,30.24,NW,306,9.0,16.0,65,0.00,,,0.00,Wunderground v.1.15,2013-11-10 09:13:00,
2013-11-10 03:18:00,47.3,36.5,30.24,NW,304,13.0,16.0,66,0.00,,,0.00,Wunderground v.1.15,2013-11-10 09:18:00,
2013-11-10 03:24:00,47.4,36.6,30.24,WNW,282,14.0,17.0,66,0.00,,,0.00,Wunderground v.1.15,2013-11-10 09:24:00,
2013-11-10 03:29:00,47.2,36.8,30.24,WNW,282,13.0,17.0,67,0.00,,,0.00,Wunderground v.1.15,2013-11-10 09:29:00,
2013-11-10 03:34:00,47.0,36.6,30.24,WNW,300,12.0,19.0,67,0.00,,,0.00,Wunderground v.1.15,2013-11-10 09:34:00,
2013-11-10 03:39:00,46.9,36.5,30.24,NW,304,17.0,19.0,67,0.00,,,0.00,Wunderground v.1.15,2013-11-10 09:39:00,
2013-11-10 03:44:00,47.1,36.7,30.24,WNW,288,14.0,17.0,67,0.00,,,0.00,Wunderground v.1.15,2013-11-10 09:44:00,
2013-11-10 03:49:00,47.1,36.7,30.25,WNW,300,14.0,19.0,67,0.00,,,0.00,Wunderground v.1.15,2013-11-10 09:49:00,
2013-11-10 03:54:00,47.0,36.6,30.25,WNW,289,17.0,17.0,67,0.00,,,0.00,Wunderground v.1.15,2013-11-10 09:54:00,
2013-11-10 03:59:00,46.9,36.9,30.25,WNW,289,13.0,17.0,68,0.00,,,0.00,Wunderground v.1.15,2013-11-10 09:59:00,
2013-11-10 04:04:00,46.8,36.8,30.25,NW,304,14.0,17.0,68,0.00,,,0.00,Wunderground v.1.15,2013-11-10 10:04:00,
2013-11-10 04:09:00,46.8,36.8,30.25,NW,305,12.0,17.0,68,0.00,,,0.00,Wunderground v.1.15,2013-11-10 10:09:00,
2013-11-10 04:14:00,46.5,36.5,30.25,WNW,290,14.0,16.0,68,0.00,,,0.00,Wunderground v.1.15,2013-11-10 10:14:00,
2013-11-10 04:19:00,46.5,36.9,30.25,WNW,290,14.0,16.0,69,0.00,,,0.00,Wunderground v.1.15,2013-11-10 10:19:00,
2013-11-10 04:24:00,46.4,36.8,30.25,WNW,295,10.0,15.0,69,0.00,,,0.00,Wunderground v.1.15,2013-11-10 10:24:00,
2013-11-10 04:29:00,46.2,37.0,30.25,NW,304,12.0,15.0,70,0.00,,,0.00,Wunderground v.1.15,2013-11-10 10:29:00,
2013-11-10 04:34:00,46.0,36.8,30.25,NW,304,13.0,16.0,70,0.00,,,0.00,Wunderground v.1.15,2013-11-10 10:34:00,
2013-11-10 04:36:00,45.9,36.7,30.25,NW,317,17.0,18.0,70,0.00,,,0.00,Wunderground v.1.15,2013-11-10 10:36:00,
2013-11-10 04:41:00,45.9,37.0,30.25,NW,307,11.0,15.0,71,0.00,,,0.00,Wunderground v.1.15,2013-11-10 10:41:00,
2013-11-10 04:46:00,45.8,36.9,30.25,WNW,301,13.0,15.0,71,0.00,,,0.00,Wunderground v.1.15,2013-11-10 10:46:00,
2013-11-10 04:51:00,45.6,36.7,30.25,NW,307,14.0,14.0,71,0.00,,,0.00,Wunderground v.1.15,2013-11-10 10:51:00,
2013-11-10 04:56:00,45.7,36.8,30.25,NW,307,11.0,15.0,71,0.00,,,0.00,Wunderground v.1.15,2013-11-10 10:56:00,
2013-11-10 05:01:00,45.7,36.8,30.25,NNW,332,14.0,15.0,71,0.00,,,0.00,Wunderground v.1.15,2013-11-10 11:01:00,
2013-11-10 05:06:00,45.6,37.1,30.26,NW,317,9.0,16.0,72,0.00,,,0.00,Wunderground v.1.15,2013-11-10 11:06:00,
2013-11-10 05:11:00,45.7,37.2,30.26,WNW,294,15.0,18.0,72,0.00,,,0.00,Wunderground v.1.15,2013-11-10 11:11:00,
2013-11-10 05:16:00,45.7,37.2,30.26,WNW,295,13.0,18.0,72,0.00,,,0.00,Wunderground v.1.15,2013-11-10 11:16:00,
2013-11-10 05:21:00,45.6,37.1,30.26,WNW,292,11.0,13.0,72,0.00,,,0.00,Wunderground v.1.15,2013-11-10 11:21:00,
2013-11-10 05:26:00,45.6,37.1,30.26,WNW,294,7.0,13.0,72,0.00,,,0.00,Wunderground v.1.15,2013-11-10 11:26:00,
2013-11-10 05:31:00,45.5,37.0,30.26,WNW,300,8.0,11.0,72,0.00,,,0.00,Wunderground v.1.15,2013-11-10 11:31:00,
2013-11-10 05:36:00,45.4,36.9,30.27,WNW,283,12.0,12.0,72,0.00,,,0.00,Wunderground v.1.15,2013-11-10 11:36:00,
2013-11-10 05:41:00,45.3,37.2,30.27,WNW,289,6.0,13.0,73,0.00,,,0.00,Wunderground v.1.15,2013-11-10 11:41:00,
2013-11-10 05:46:00,45.2,37.1,30.27,WNW,288,9.0,13.0,73,0.00,,,0.00,Wunderground v.1.15,2013-11-10 11:46:00,
2013-11-10 05:51:00,45.4,37.2,30.27,WNW,290,10.0,12.0,73,0.00,,,0.00,Wunderground v.1.15,2013-11-10 11:51:00,
2013-11-10 05:56:00,45.4,37.2,30.27,WNW,295,11.0,12.0,73,0.00,,,0.00,Wunderground v.1.15,2013-11-10 11:56:00,
2013-11-10 06:01:00,45.2,37.1,30.27,WNW,303,7.0,10.0,73,0.00,,,0.00,Wunderground v.1.15,2013-11-10 12:01:00,
2013-11-10 06:06:00,45.2,37.1,30.27,WNW,286,8.0,10.0,73,0.00,,,0.00,Wunderground v.1.15,2013-11-10 12:06:00,
2013-11-10 06:11:00,45.3,37.2,30.27,WNW,286,7.0,11.0,73,0.00,,,0.00,Wunderground v.1.15,2013-11-10 12:11:00,
2013-11-10 06:16:00,45.3,37.2,30.27,NW,311,10.0,11.0,73,0.00,,,0.00,Wunderground v.1.15,2013-11-10 12:16:00,
2013-11-10 06:21:00,45.3,37.2,30.27,NW,309,6.0,9.0,73,0.00,,,0.00,Wunderground v.1.15,2013-11-10 12:21:00,
2013-11-10 06:27:00,45.3,37.2,30.27,WNW,290,8.0,11.0,73,0.00,,,0.00,Wunderground v.1.15,2013-11-10 12:27:00,
2013-11-10 06:32:00,45.2,37.4,30.28,WNW,296,7.0,9.0,74,0.00,,,0.00,Wunderground v.1.15,2013-11-10 12:32:00,
2013-11-10 06:37:00,45.1,37.3,30.28,WNW,295,9.0,9.0,74,0.00,,,0.00,Wunderground v.1.15,2013-11-10 12:37:00,
2013-11-10 06:42:00,45.2,37.4,30.28,WNW,298,7.0,10.0,74,0.00,,,0.00,Wunderground v.1.15,2013-11-10 12:42:00,
2013-11-10 06:47:00,45.2,37.4,30.28,WNW,297,7.0,11.0,74,0.00,,,0.00,Wunderground v.1.15,2013-11-10 12:47:00,
2013-11-10 06:52:00,45.2,37.4,30.28,WNW,294,7.0,10.0,74,0.00,,,0.00,Wunderground v.1.15,2013-11-10 12:52:00,
2013-11-10 06:57:00,45.2,37.4,30.28,NW,313,8.0,11.0,74,0.00,,,0.00,Wunderground v.1.15,2013-11-10 12:57:00,
2013-11-10 07:02:00,45.2,37.4,30.29,WNW,290,7.0,8.0,74,0.00,,,0.00,Wunderground v.1.15,2013-11-10 13:02:00,
2013-11-10 07:07:00,45.3,37.5,30.29,WNW,286,7.0,11.0,74,0.00,,,0.00,Wunderground v.1.15,2013-11-10 13:07:00,
2013-11-10 07:12:00,45.5,37.3,30.29,NW,313,8.0,11.0,73,0.00,,,0.00,Wunderground v.1.15,2013-11-10 13:12:00,
2013-11-10 07:17:00,45.6,37.4,30.29,NW,312,10.0,11.0,73,0.00,,,0.00,Wunderground v.1.15,2013-11-10 13:17:00,
2013-11-10 07:22:00,45.6,37.4,30.30,WNW,295,7.0,10.0,73,0.00,,,0.00,Wunderground v.1.15,2013-11-10 13:22:00,
2013-11-10 07:27:00,45.5,37.3,30.30,NW,307,8.0,10.0,73,0.00,,,0.00,Wunderground v.1.15,2013-11-10 13:27:00,
2013-11-10 07:32:00,45.5,37.3,30.30,NW,325,7.0,10.0,73,0.00,,,0.00,Wunderground v.1.15,2013-11-10 13:32:00,
2013-11-10 07:37:00,45.4,37.6,30.30,WNW,301,8.0,10.0,74,0.00,,,0.00,Wunderground v.1.15,2013-11-10 13:37:00,
2013-11-10 07:42:00,45.2,37.4,30.30,NW,315,6.0,8.0,74,0.00,,,0.00,Wunderground v.1.15,2013-11-10 13:42:00,
2013-11-10 07:47:00,45.3,37.5,30.30,NW,311,6.0,8.0,74,0.00,,,0.00,Wunderground v.1.15,2013-11-10 13:47:00,
2013-11-10 07:52:00,45.3,37.5,30.31,WNW,288,4.0,6.0,74,0.00,,,0.00,Wunderground v.1.15,2013-11-10 13:52:00,
2013-11-10 07:57:00,45.3,37.5,30.31,WNW,295,3.0,6.0,74,0.00,,,0.00,Wunderground v.1.15,2013-11-10 13:57:00,
2013-11-10 08:02:00,45.3,37.5,30.31,WNW,299,1.0,4.0,74,0.00,,,0.00,Wunderground v.1.15,2013-11-10 14:02:00,
2013-11-10 08:07:00,45.7,37.9,30.31,WNW,294,3.0,5.0,74,0.00,,,0.00,Wunderground v.1.15,2013-11-10 14:07:00,
2013-11-10 08:12:00,45.9,38.1,30.31,NW,304,6.0,6.0,74,0.00,,,0.00,Wunderground v.1.15,2013-11-10 14:12:00,
2013-11-10 08:18:00,46.1,38.3,30.31,West,279,5.0,7.0,74,0.00,,,0.00,Wunderground v.1.15,2013-11-10 14:18:00,
2013-11-10 08:23:00,46.0,38.2,30.31,NW,310,7.0,7.0,74,0.00,,,0.00,Wunderground v.1.15,2013-11-10 14:23:00,
2013-11-10 08:28:00,46.1,38.3,30.31,NW,322,5.0,7.0,74,0.00,,,0.00,Wunderground v.1.15,2013-11-10 14:28:00,
2013-11-10 08:33:00,46.1,38.6,30.31,NNW,330,7.0,8.0,75,0.00,,,0.00,Wunderground v.1.15,2013-11-10 14:33:00,
2013-11-10 08:38:00,46.3,38.8,30.31,NNW,333,6.0,8.0,75,0.00,,,0.00,Wunderground v.1.15,2013-11-10 14:38:00,
2013-11-10 08:43:00,46.3,38.8,30.32,NNW,328,5.0,7.0,75,0.00,,,0.00,Wunderground v.1.15,2013-11-10 14:43:00,
2013-11-10 08:48:00,46.3,38.8,30.31,NNW,334,5.0,8.0,75,0.00,,,0.00,Wunderground v.1.15,2013-11-10 14:48:00,
2013-11-10 08:53:00,46.4,39.2,30.31,NNW,342,5.0,7.0,76,0.00,,,0.00,Wunderground v.1.15,2013-11-10 14:53:00,
2013-11-10 08:58:00,46.5,39.3,30.31,NNW,340,8.0,8.0,76,0.00,,,0.00,Wunderground v.1.15,2013-11-10 14:58:00,
2013-11-10 09:03:00,46.7,39.9,30.31,NNW,329,8.0,8.0,77,0.00,,,0.00,Wunderground v.1.15,2013-11-10 15:03:00,
2013-11-10 09:08:00,46.8,40.0,30.31,NW,317,8.0,10.0,77,0.00,,,0.00,Wunderground v.1.15,2013-11-10 15:08:00,
2013-11-10 09:13:00,46.9,40.1,30.32,NNW,348,7.0,11.0,77,0.00,,,0.00,Wunderground v.1.15,2013-11-10 15:13:00,
2013-11-10 09:18:00,47.0,40.2,30.31,NNW,330,6.0,11.0,77,0.00,,,0.00,Wunderground v.1.15,2013-11-10 15:18:00,
2013-11-10 09:23:00,47.2,40.4,30.31,NW,304,7.0,10.0,77,0.00,,,0.00,Wunderground v.1.15,2013-11-10 15:23:00,
2013-11-10 09:28:00,47.4,40.6,30.32,NW,322,10.0,10.0,77,0.00,,,0.00,Wunderground v.1.15,2013-11-10 15:28:00,
2013-11-10 09:33:00,47.6,40.7,30.32,NNW,328,8.0,10.0,77,0.00,,,0.00,Wunderground v.1.15,2013-11-10 15:33:00,
2013-11-10 09:38:00,47.9,41.0,30.32,NNW,338,9.0,11.0,77,0.00,,,0.00,Wunderground v.1.15,2013-11-10 15:38:00,
2013-11-10 09:43:00,48.2,41.0,30.32,NNW,329,7.0,7.0,76,0.00,,,0.00,Wunderground v.1.15,2013-11-10 15:43:00,
2013-11-10 09:48:00,48.5,41.3,30.32,NW,319,7.0,9.0,76,0.00,,,0.00,Wunderground v.1.15,2013-11-10 15:48:00,
2013-11-10 09:54:00,48.7,41.1,30.32,NNW,348,5.0,7.0,75,0.00,,,0.00,Wunderground v.1.15,2013-11-10 15:54:00,
2013-11-10 09:59:00,49.0,41.4,30.32,NW,309,5.0,8.0,75,0.00,,,0.00,Wunderground v.1.15,2013-11-10 15:59:00,
2013-11-10 10:04:00,49.3,41.4,30.32,WNW,301,4.0,7.0,74,0.00,,,0.00,Wunderground v.1.15,2013-11-10 16:04:00,
2013-11-10 10:09:00,49.6,41.7,30.32,NNW,338,5.0,7.0,74,0.00,,,0.00,Wunderground v.1.15,2013-11-10 16:09:00,
2013-11-10 10:14:00,49.7,41.7,30.31,NNW,334,6.0,7.0,74,0.00,,,0.00,Wunderground v.1.15,2013-11-10 16:14:00,
2013-11-10 10:19:00,49.9,41.9,30.32,WNW,297,2.0,8.0,74,0.00,,,0.00,Wunderground v.1.15,2013-11-10 16:19:00,
2013-11-10 10:24:00,50.1,41.8,30.31,NNW,336,4.0,7.0,73,0.00,,,0.00,Wunderground v.1.15,2013-11-10 16:24:00,
2013-11-10 10:29:00,50.4,42.1,30.31,NW,325,6.0,7.0,73,0.00,,,0.00,Wunderground v.1.15,2013-11-10 16:29:00,
2013-11-10 10:34:00,50.6,41.9,30.31,NW,317,5.0,7.0,72,0.00,,,0.00,Wunderground v.1.15,2013-11-10 16:34:00,
2013-11-10 10:39:00,51.0,42.3,30.31,NW,325,4.0,7.0,72,0.00,,,0.00,Wunderground v.1.15,2013-11-10 16:39:00,
2013-11-10 10:44:00,51.2,42.1,30.31,WNW,298,5.0,8.0,71,0.00,,,0.00,Wunderground v.1.15,2013-11-10 16:44:00,
2013-11-10 10:49:00,51.4,41.9,30.31,NW,304,6.0,8.0,70,0.00,,,0.00,Wunderground v.1.15,2013-11-10 16:49:00,
2013-11-10 10:54:00,51.5,42.0,30.31,NW,311,5.0,8.0,70,0.00,,,0.00,Wunderground v.1.15,2013-11-10 16:54:00,
2013-11-10 10:59:00,51.9,42.0,30.31,NW,324,7.0,8.0,69,0.00,,,0.00,Wunderground v.1.15,2013-11-10 16:59:00,
2013-11-10 11:04:00,52.3,42.0,30.30,NNW,332,5.0,7.0,68,0.00,,,0.00,Wunderground v.1.15,2013-11-10 17:04:00,
2013-11-10 11:09:00,52.5,41.9,30.30,NNW,337,2.0,7.0,67,0.00,,,0.00,Wunderground v.1.15,2013-11-10 17:09:00,
2013-11-10 11:14:00,52.9,42.2,30.30,NW,314,7.0,7.0,67,0.00,,,0.00,Wunderground v.1.15,2013-11-10 17:14:00,
2013-11-10 11:19:00,53.2,41.3,30.30,NW,310,4.0,7.0,64,0.00,,,0.00,Wunderground v.1.15,2013-11-10 17:19:00,
2013-11-10 11:24:00,53.5,41.2,30.30,NNW,331,7.0,7.0,63,0.00,,,0.00,Wunderground v.1.15,2013-11-10 17:24:00,
2013-11-10 11:29:00,53.7,41.8,30.30,NNW,338,5.0,8.0,64,0.00,,,0.00,Wunderground v.1.15,2013-11-10 17:29:00,
2013-11-10 11:34:00,53.9,42.0,30.30,NW,304,3.0,6.0,64,0.00,,,0.00,Wunderground v.1.15,2013-11-10 17:34:00,
2013-11-10 11:39:00,54.1,42.2,30.29,NNW,346,8.0,8.0,64,0.00,,,0.00,Wunderground v.1.15,2013-11-10 17:39:00,
2013-11-10 11:44:00,54.4,41.6,30.29,NNE,30,5.0,9.0,62,0.00,,,0.00,Wunderground v.1.15,2013-11-10 17:44:00,
2013-11-10 11:49:00,54.9,41.7,30.28,WNW,299,6.0,9.0,61,0.00,,,0.00,Wunderground v.1.15,2013-11-10 17:49:00,
2013-11-10 11:54:00,55.4,41.7,30.28,NW,314,5.0,8.0,60,0.00,,,0.00,Wunderground v.1.15,2013-11-10 17:54:00,
2013-11-10 11:59:00,55.6,41.5,30.28,NW,310,5.0,9.0,59,0.00,,,0.00,Wunderground v.1.15,2013-11-10 17:59:00,
2013-11-10 12:04:00,55.8,42.5,30.28,NW,314,3.0,6.0,61,0.00,,,0.00,Wunderground v.1.15,2013-11-10 18:04:00,
2013-11-10 12:09:00,56.0,41.9,30.28,NW,323,3.0,10.0,59,0.00,,,0.00,Wunderground v.1.15,2013-11-10 18:09:00,
2013-11-10 12:14:00,56.0,41.4,30.28,NNW,332,6.0,14.0,58,0.00,,,0.00,Wunderground v.1.15,2013-11-10 18:14:00,
2013-11-10 12:19:00,56.4,41.3,30.27,North,355,8.0,14.0,57,0.00,,,0.00,Wunderground v.1.15,2013-11-10 18:19:00,
2013-11-10 12:24:00,56.6,41.1,30.27,NNW,329,9.0,9.0,56,0.00,,,0.00,Wunderground v.1.15,2013-11-10 18:24:00,
2013-11-10 12:29:00,56.8,40.8,30.27,North,355,3.0,13.0,55,0.00,,,0.00,Wunderground v.1.15,2013-11-10 18:29:00,
2013-11-10 12:34:00,57.0,41.4,30.27,NW,325,10.0,11.0,56,0.00,,,0.00,Wunderground v.1.15,2013-11-10 18:34:00,
2013-11-10 12:39:00,57.3,41.3,30.27,NNW,330,8.0,11.0,55,0.00,,,0.00,Wunderground v.1.15,2013-11-10 18:39:00,
2013-11-10 12:44:00,57.1,40.1,30.27,NNW,338,1.0,9.0,53,0.00,,,0.00,Wunderground v.1.15,2013-11-10 18:44:00,
2013-11-10 12:49:00,57.4,40.9,30.27,NW,322,1.0,10.0,54,0.00,,,0.00,Wunderground v.1.15,2013-11-10 18:49:00,
2013-11-10 12:54:00,57.8,40.3,30.26,NW,314,8.0,12.0,52,0.00,,,0.00,Wunderground v.1.15,2013-11-10 18:54:00,
2013-11-10 12:59:00,58.1,39.0,30.26,NNW,342,5.0,16.0,49,0.00,,,0.00,Wunderground v.1.15,2013-11-10 18:59:00,
2013-11-10 13:04:00,58.1,39.5,30.26,North,350,12.0,12.0,50,0.00,,,0.00,Wunderground v.1.15,2013-11-10 19:04:00,
2013-11-10 13:09:00,58.2,39.6,30.26,NW,306,8.0,15.0,50,0.00,,,0.00,Wunderground v.1.15,2013-11-10 19:09:00,
2013-11-10 13:14:00,58.7,40.1,30.25,North,5,7.0,13.0,50,0.00,,,0.00,Wunderground v.1.15,2013-11-10 19:14:00,
2013-11-10 13:19:00,59.1,37.8,30.25,West,280,6.0,16.0,45,0.00,,,0.00,Wunderground v.1.15,2013-11-10 19:19:00,
2013-11-10 13:24:00,59.8,37.2,30.25,NNW,336,13.0,17.0,43,0.00,,,0.00,Wunderground v.1.15,2013-11-10 19:24:00,
2013-11-10 13:29:00,59.8,35.4,30.25,NW,311,16.0,20.0,40,0.00,,,0.00,Wunderground v.1.15,2013-11-10 19:29:00,
2013-11-10 13:34:00,59.6,35.9,30.25,NW,306,12.0,19.0,41,0.00,,,0.00,Wunderground v.1.15,2013-11-10 19:34:00,
2013-11-10 13:39:00,59.6,34.6,30.25,NW,309,17.0,21.0,39,0.00,,,0.00,Wunderground v.1.15,2013-11-10 19:39:00,
2013-11-10 13:44:00,59.7,34.7,30.25,North,5,2.0,24.0,39,0.00,,,0.00,Wunderground v.1.15,2013-11-10 19:44:00,
2013-11-10 13:49:00,59.9,34.9,30.25,West,277,15.0,24.0,39,0.00,,,0.00,Wunderground v.1.15,2013-11-10 19:49:00,
2013-11-10 13:54:00,60.0,35.0,30.25,NE,43,7.0,21.0,39,0.00,,,0.00,Wunderground v.1.15,2013-11-10 19:54:00,
2013-11-10 13:59:00,59.9,34.2,30.25,WNW,302,11.0,21.0,38,0.00,,,0.00,Wunderground v.1.15,2013-11-10 19:59:00,
2013-11-10 14:04:00,59.8,34.8,30.25,NNW,339,11.0,18.0,39,0.00,,,0.00,Wunderground v.1.15,2013-11-10 20:04:00,
2013-11-10 14:10:00,59.9,34.2,30.25,SW,224,14.0,14.0,38,0.00,,,0.00,Wunderground v.1.15,2013-11-10 20:10:00,
2013-11-10 14:15:00,59.8,34.1,30.25,NW,317,20.0,20.0,38,0.00,,,0.00,Wunderground v.1.15,2013-11-10 20:15:00,
2013-11-10 14:20:00,59.6,33.3,30.25,NNW,346,4.0,14.0,37,0.00,,,0.00,Wunderground v.1.15,2013-11-10 20:20:00,
2013-11-10 14:25:00,59.8,34.1,30.25,NW,304,17.0,21.0,38,0.00,,,0.00,Wunderground v.1.15,2013-11-10 20:25:00,
2013-11-10 14:30:00,59.6,33.9,30.25,NW,326,16.0,19.0,38,0.00,,,0.00,Wunderground v.1.15,2013-11-10 20:30:00,
2013-11-10 14:35:00,59.3,33.7,30.25,NW,323,10.0,23.0,38,0.00,,,0.00,Wunderground v.1.15,2013-11-10 20:35:00,
2013-11-10 14:40:00,59.2,33.6,30.25,NNW,327,17.0,19.0,38,0.00,,,0.00,Wunderground v.1.15,2013-11-10 20:40:00,
2013-11-10 14:45:00,59.3,34.3,30.25,NW,316,15.0,24.0,39,0.00,,,0.00,Wunderground v.1.15,2013-11-10 20:45:00,
2013-11-10 14:50:00,59.1,34.1,30.25,NW,313,17.0,18.0,39,0.00,,,0.00,Wunderground v.1.15,2013-11-10 20:50:00,
2013-11-10 14:55:00,59.0,35.3,30.25,West,269,7.0,20.0,41,0.00,,,0.00,Wunderground v.1.15,2013-11-10 20:55:00,
2013-11-10 15:00:00,59.0,34.7,30.25,NNW,333,18.0,18.0,40,0.00,,,0.00,Wunderground v.1.15,2013-11-10 21:00:00,
2013-11-10 15:05:00,58.9,34.0,30.25,North,355,4.0,22.0,39,0.00,,,0.00,Wunderground v.1.15,2013-11-10 21:05:00,
2013-11-10 15:10:00,58.7,34.4,30.25,NW,326,20.0,21.0,40,0.00,,,0.00,Wunderground v.1.15,2013-11-10 21:10:00,
2013-11-10 15:15:00,58.6,34.3,30.25,NW,315,19.0,21.0,40,0.00,,,0.00,Wunderground v.1.15,2013-11-10 21:15:00,
2013-11-10 15:20:00,58.4,34.8,30.25,NW,317,7.0,16.0,41,0.00,,,0.00,Wunderground v.1.15,2013-11-10 21:20:00,
2013-11-10 15:25:00,58.3,34.7,30.25,NNW,328,16.0,20.0,41,0.00,,,0.00,Wunderground v.1.15,2013-11-10 21:25:00,
2013-11-10 15:30:00,58.1,35.1,30.25,NW,317,15.0,19.0,42,0.00,,,0.00,Wunderground v.1.15,2013-11-10 21:30:00,
2013-11-10 15:36:00,57.9,34.9,30.25,NW,321,17.0,22.0,42,0.00,,,0.00,Wunderground v.1.15,2013-11-10 21:36:00,
2013-11-10 15:41:00,57.8,34.8,30.25,WNW,298,8.0,18.0,42,0.00,,,0.00,Wunderground v.1.15,2013-11-10 21:41:00,
2013-11-10 15:46:00,57.8,35.4,30.25,West,281,5.0,20.0,43,0.00,,,0.00,Wunderground v.1.15,2013-11-10 21:46:00,
2013-11-10 15:51:00,57.7,35.3,30.25,NW,316,15.0,17.0,43,0.00,,,0.00,Wunderground v.1.15,2013-11-10 21:51:00,
2013-11-10 15:56:00,57.6,35.8,30.25,NW,316,17.0,18.0,44,0.00,,,0.00,Wunderground v.1.15,2013-11-10 21:56:00,
2013-11-10 16:01:00,57.5,36.3,30.25,WNW,291,5.0,18.0,45,0.00,,,0.00,Wunderground v.1.15,2013-11-10 22:01:00,
2013-11-10 16:06:00,57.3,36.1,30.25,SW,223,6.0,18.0,45,0.00,,,0.00,Wunderground v.1.15,2013-11-10 22:06:00,
2013-11-10 16:11:00,57.1,35.9,30.25,NNW,328,4.0,18.0,45,0.00,,,0.00,Wunderground v.1.15,2013-11-10 22:11:00,
2013-11-10 16:16:00,56.8,35.7,30.25,NW,311,13.0,18.0,45,0.00,,,0.00,Wunderground v.1.15,2013-11-10 22:16:00,
2013-11-10 16:21:00,56.4,35.9,30.25,NW,316,14.0,14.0,46,0.00,,,0.00,Wunderground v.1.15,2013-11-10 22:21:00,
2013-11-10 16:26:00,56.0,35.5,30.25,NW,311,12.0,19.0,46,0.00,,,0.00,Wunderground v.1.15,2013-11-10 22:26:00,
2013-11-10 16:31:00,55.7,35.2,30.25,WNW,298,12.0,17.0,46,0.00,,,0.00,Wunderground v.1.15,2013-11-10 22:31:00,
2013-11-10 16:36:00,55.3,35.4,30.25,NW,312,7.0,17.0,47,0.00,,,0.00,Wunderground v.1.15,2013-11-10 22:36:00,
2013-11-10 16:41:00,54.8,34.9,30.26,NW,309,10.0,14.0,47,0.00,,,0.00,Wunderground v.1.15,2013-11-10 22:41:00,
2013-11-10 16:46:00,54.5,34.7,30.26,WNW,299,9.0,17.0,47,0.00,,,0.00,Wunderground v.1.15,2013-11-10 22:46:00,
2013-11-10 16:51:00,54.3,35.0,30.26,NW,312,12.0,15.0,48,0.00,,,0.00,Wunderground v.1.15,2013-11-10 22:51:00,
2013-11-10 16:56:00,54.1,34.8,30.26,NNW,327,10.0,15.0,48,0.00,,,0.00,Wunderground v.1.15,2013-11-10 22:56:00,
2013-11-10 17:01:00,54.0,34.7,30.26,WNW,303,17.0,17.0,48,0.00,,,0.00,Wunderground v.1.15,2013-11-10 23:01:00,
2013-11-10 17:06:00,54.0,34.7,30.26,WNW,294,12.0,19.0,48,0.00,,,0.00,Wunderground v.1.15,2013-11-10 23:06:00,
2013-11-10 17:11:00,53.9,35.2,30.26,NNW,331,8.0,14.0,49,0.00,,,0.00,Wunderground v.1.15,2013-11-10 23:11:00,
2013-11-10 17:16:00,53.8,35.1,30.25,WNW,303,11.0,18.0,49,0.00,,,0.00,Wunderground v.1.15,2013-11-10 23:16:00,
2013-11-10 17:21:00,53.5,35.3,30.26,NNE,15,4.0,13.0,50,0.00,,,0.00,Wunderground v.1.15,2013-11-10 23:21:00,
2013-11-10 17:26:00,53.2,35.0,30.26,NW,307,10.0,14.0,50,0.00,,,0.00,Wunderground v.1.15,2013-11-10 23:26:00,
2013-11-10 17:31:00,53.0,35.3,30.26,NW,316,10.0,14.0,51,0.00,,,0.00,Wunderground v.1.15,2013-11-10 23:31:00,
2013-11-10 17:36:00,52.7,35.1,30.26,NW,318,12.0,14.0,51,0.00,,,0.00,Wunderground v.1.15,2013-11-10 23:36:00,
2013-11-10 17:42:00,52.6,35.5,30.26,WNW,294,8.0,13.0,52,0.00,,,0.00,Wunderground v.1.15,2013-11-10 23:42:00,
2013-11-10 17:47:00,52.4,35.3,30.26,NW,317,12.0,15.0,52,0.00,,,0.00,Wunderground v.1.15,2013-11-10 23:47:00,
2013-11-10 17:52:00,52.3,35.2,30.26,NW,308,14.0,16.0,52,0.00,,,0.00,Wunderground v.1.15,2013-11-10 23:52:00,
2013-11-10 17:57:00,52.1,35.5,30.26,West,276,5.0,16.0,53,0.00,,,0.00,Wunderground v.1.15,2013-11-10 23:57:00,
2013-11-10 18:02:00,51.9,35.3,30.26,NW,308,8.0,13.0,53,0.00,,,0.00,Wunderground v.1.15,2013-11-11 00:02:00,
2013-11-10 18:07:00,51.8,35.7,30.26,NW,314,15.0,15.0,54,0.00,,,0.00,Wunderground v.1.15,2013-11-11 00:07:00,
2013-11-10 18:12:00,51.7,35.6,30.26,NW,317,13.0,16.0,54,0.00,,,0.00,Wunderground v.1.15,2013-11-11 00:12:00,
2013-11-10 18:17:00,51.6,35.5,30.26,NW,304,13.0,16.0,54,0.00,,,0.00,Wunderground v.1.15,2013-11-11 00:17:00,
2013-11-10 18:22:00,51.4,35.8,30.26,NW,315,14.0,16.0,55,0.00,,,0.00,Wunderground v.1.15,2013-11-11 00:22:00,
2013-11-10 18:27:00,51.3,35.7,30.26,WNW,303,8.0,16.0,55,0.00,,,0.00,Wunderground v.1.15,2013-11-11 00:27:00,
2013-11-10 18:32:00,51.2,35.6,30.26,NW,304,12.0,14.0,55,0.00,,,0.00,Wunderground v.1.15,2013-11-11 00:32:00,
2013-11-10 18:37:00,50.9,35.3,30.26,NW,315,13.0,15.0,55,0.00,,,0.00,Wunderground v.1.15,2013-11-11 00:37:00,
2013-11-10 18:42:00,51.0,34.9,30.26,WNW,292,8.0,13.0,54,0.00,,,0.00,Wunderground v.1.15,2013-11-11 00:42:00,
2013-11-10 18:47:00,51.0,34.9,30.26,NW,319,12.0,14.0,54,0.00,,,0.00,Wunderground v.1.15,2013-11-11 00:47:00,
2013-11-10 18:52:00,50.9,34.4,30.26,NW,324,9.0,14.0,53,0.00,,,0.00,Wunderground v.1.15,2013-11-11 00:52:00,
2013-11-10 18:57:00,50.7,33.7,30.26,NW,319,13.0,14.0,52,0.00,,,0.00,Wunderground v.1.15,2013-11-11 00:57:00,
2013-11-10 19:02:00,50.8,33.3,30.26,NW,306,8.0,11.0,51,0.00,,,0.00,Wunderground v.1.15,2013-11-11 01:02:00,
2013-11-10 19:07:00,50.7,32.7,30.26,NW,315,9.0,12.0,50,0.00,,,0.00,Wunderground v.1.15,2013-11-11 01:07:00,
2013-11-10 19:12:00,50.7,32.7,30.26,NW,323,10.0,14.0,50,0.00,,,0.00,Wunderground v.1.15,2013-11-11 01:12:00,
2013-11-10 19:17:00,50.6,32.6,30.27,NW,319,9.0,14.0,50,0.00,,,0.00,Wunderground v.1.15,2013-11-11 01:17:00,
2013-11-10 19:22:00,50.4,32.4,30.27,WNW,302,9.0,13.0,50,0.00,,,0.00,Wunderground v.1.15,2013-11-11 01:22:00,
2013-11-10 19:27:00,50.4,32.4,30.27,NW,307,6.0,13.0,50,0.00,,,0.00,Wunderground v.1.15,2013-11-11 01:27:00,
2013-11-10 19:33:00,50.2,31.2,30.27,NW,318,11.0,13.0,48,0.00,,,0.00,Wunderground v.1.15,2013-11-11 01:33:00,
2013-11-10 19:38:00,50.1,30.6,30.27,NW,304,11.0,15.0,47,0.00,,,0.00,Wunderground v.1.15,2013-11-11 01:38:00,
2013-11-10 19:43:00,50.2,30.2,30.27,NW,315,7.0,14.0,46,0.00,,,0.00,Wunderground v.1.15,2013-11-11 01:43:00,
2013-11-10 19:48:00,50.0,30.5,30.27,NNW,337,15.0,15.0,47,0.00,,,0.00,Wunderground v.1.15,2013-11-11 01:48:00,
2013-11-10 19:53:00,50.0,30.5,30.27,NNW,334,7.0,13.0,47,0.00,,,0.00,Wunderground v.1.15,2013-11-11 01:53:00,
2013-11-10 19:58:00,50.0,30.0,30.27,NW,306,8.0,13.0,46,0.00,,,0.00,Wunderground v.1.15,2013-11-11 01:58:00,
2013-11-10 20:03:00,49.7,30.3,30.27,NNW,346,11.0,11.0,47,0.00,,,0.00,Wunderground v.1.15,2013-11-11 02:03:00,
2013-11-10 20:08:00,49.6,29.6,30.27,NNW,340,6.0,13.0,46,0.00,,,0.00,Wunderground v.1.15,2013-11-11 02:08:00,
2013-11-10 20:13:00,49.5,29.6,30.28,NNW,331,6.0,13.0,46,0.00,,,0.00,Wunderground v.1.15,2013-11-11 02:13:00,
2013-11-10 20:18:00,49.3,29.4,30.27,NNW,336,11.0,13.0,46,0.00,,,0.00,Wunderground v.1.15,2013-11-11 02:18:00,
2013-11-10 20:23:00,49.2,29.3,30.28,NNW,330,9.0,14.0,46,0.00,,,0.00,Wunderground v.1.15,2013-11-11 02:23:00,
2013-11-10 20:28:00,49.2,28.7,30.27,West,278,6.0,14.0,45,0.00,,,0.00,Wunderground v.1.15,2013-11-11 02:28:00,
2013-11-10 20:33:00,49.0,28.6,30.27,WNW,287,4.0,15.0,45,0.00,,,0.00,Wunderground v.1.15,2013-11-11 02:33:00,
2013-11-10 20:38:00,48.7,28.3,30.27,NW,325,6.0,15.0,45,0.00,,,0.00,Wunderground v.1.15,2013-11-11 02:38:00,
2013-11-10 20:43:00,48.6,28.2,30.27,NNW,331,13.0,13.0,45,0.00,,,0.00,Wunderground v.1.15,2013-11-11 02:43:00,
2013-11-10 20:48:00,48.5,28.1,30.27,NNW,329,5.0,13.0,45,0.00,,,0.00,Wunderground v.1.15,2013-11-11 02:48:00,
2013-11-10 20:53:00,48.3,27.4,30.27,NNW,336,6.0,13.0,44,0.00,,,0.00,Wunderground v.1.15,2013-11-11 02:53:00,
2013-11-10 20:58:00,48.2,27.3,30.27,North,355,5.0,15.0,44,0.00,,,0.00,Wunderground v.1.15,2013-11-11 02:58:00,
2013-11-10 21:03:00,47.9,27.0,30.27,NW,309,8.0,13.0,44,0.00,,,0.00,Wunderground v.1.15,2013-11-11 03:03:00,
2013-11-10 21:08:00,47.9,26.5,30.27,NNW,332,11.0,14.0,43,0.00,,,0.00,Wunderground v.1.15,2013-11-11 03:08:00,
2013-11-10 21:13:00,47.7,26.8,30.27,NW,304,11.0,14.0,44,0.00,,,0.00,Wunderground v.1.15,2013-11-11 03:13:00,
2013-11-10 21:19:00,47.6,26.7,30.27,NW,316,10.0,18.0,44,0.00,,,0.00,Wunderground v.1.15,2013-11-11 03:19:00,
2013-11-10 21:24:00,47.4,26.6,30.27,NW,311,10.0,16.0,44,0.00,,,0.00,Wunderground v.1.15,2013-11-11 03:24:00,
2013-11-10 21:29:00,47.2,26.9,30.26,WNW,293,9.0,17.0,45,0.00,,,0.00,Wunderground v.1.15,2013-11-11 03:29:00,
2013-11-10 21:34:00,46.8,27.1,30.27,North,5,7.0,15.0,46,0.00,,,0.00,Wunderground v.1.15,2013-11-11 03:34:00,
2013-11-10 21:39:00,46.6,27.4,30.27,NW,304,8.0,16.0,47,0.00,,,0.00,Wunderground v.1.15,2013-11-11 03:39:00,
2013-11-10 21:44:00,46.3,27.2,30.27,NW,321,11.0,16.0,47,0.00,,,0.00,Wunderground v.1.15,2013-11-11 03:44:00,
2013-11-10 21:49:00,46.0,27.4,30.27,NW,318,13.0,16.0,48,0.00,,,0.00,Wunderground v.1.15,2013-11-11 03:49:00,
2013-11-10 21:54:00,45.6,27.0,30.27,NW,325,11.0,14.0,48,0.00,,,0.00,Wunderground v.1.15,2013-11-11 03:54:00,
2013-11-10 21:59:00,45.5,26.9,30.27,NW,317,7.0,14.0,48,0.00,,,0.00,Wunderground v.1.15,2013-11-11 03:59:00,
2013-11-10 22:04:00,45.3,26.7,30.27,NNW,341,9.0,17.0,48,0.00,,,0.00,Wunderground v.1.15,2013-11-11 04:04:00,
2013-11-10 22:09:00,45.2,26.7,30.27,NW,312,8.0,17.0,48,0.00,,,0.00,Wunderground v.1.15,2013-11-11 04:09:00,
2013-11-10 22:14:00,45.2,26.7,30.27,NW,315,11.0,12.0,48,0.00,,,0.00,Wunderground v.1.15,2013-11-11 04:14:00,
2013-11-10 22:19:00,45.2,26.7,30.27,NW,326,8.0,13.0,48,0.00,,,0.00,Wunderground v.1.15,2013-11-11 04:19:00,
2013-11-10 22:24:00,45.1,26.6,30.27,WNW,300,10.0,14.0,48,0.00,,,0.00,Wunderground v.1.15,2013-11-11 04:24:00,
2013-11-10 22:29:00,44.9,26.4,30.27,NNW,331,14.0,15.0,48,0.00,,,0.00,Wunderground v.1.15,2013-11-11 04:29:00,
2013-11-10 22:34:00,44.9,26.4,30.27,NW,317,10.0,16.0,48,0.00,,,0.00,Wunderground v.1.15,2013-11-11 04:34:00,
2013-11-10 22:39:00,44.7,26.2,30.27,NNW,338,12.0,16.0,48,0.00,,,0.00,Wunderground v.1.15,2013-11-11 04:39:00,
2013-11-10 22:44:00,44.6,26.1,30.26,NW,323,11.0,16.0,48,0.00,,,0.00,Wunderground v.1.15,2013-11-11 04:44:00,
2013-11-10 22:49:00,44.5,26.0,30.26,NNW,346,11.0,16.0,48,0.00,,,0.00,Wunderground v.1.15,2013-11-11 04:49:00,
2013-11-10 22:54:00,44.4,26.4,30.26,NNW,327,7.0,12.0,49,0.00,,,0.00,Wunderground v.1.15,2013-11-11 04:54:00,
2013-11-10 22:59:00,44.5,26.0,30.26,NNW,341,6.0,12.0,48,0.00,,,0.00,Wunderground v.1.15,2013-11-11 04:59:00,
2013-11-10 23:01:00,44.5,25.5,30.26,WNW,297,4.0,8.0,47,0.00,,,0.00,Wunderground v.1.15,2013-11-11 05:01:00,
2013-11-10 23:06:00,45.2,24.6,30.26,North,5,11.0,15.0,44,0.00,,,0.00,Wunderground v.1.15,2013-11-11 05:06:00,
2013-11-10 23:11:00,45.8,25.1,30.26,NNE,17,11.0,12.0,44,0.00,,,0.00,Wunderground v.1.15,2013-11-11 05:11:00,
2013-11-10 23:16:00,45.9,25.2,30.26,ENE,76,7.0,12.0,44,0.00,,,0.00,Wunderground v.1.15,2013-11-11 05:16:00,
2013-11-10 23:21:00,45.8,24.5,30.26,NE,38,3.0,7.0,43,0.00,,,0.00,Wunderground v.1.15,2013-11-11 05:21:00,
2013-11-10 23:26:00,45.6,24.9,30.26,NE,44,5.0,9.0,44,0.00,,,0.00,Wunderground v.1.15,2013-11-11 05:26:00,
2013-11-10 23:31:00,45.4,24.7,30.26,East,82,5.0,8.0,44,0.00,,,0.00,Wunderground v.1.15,2013-11-11 05:31:00,
2013-11-10 23:36:00,45.1,24.5,30.26,ENE,74,4.0,8.0,44,0.00,,,0.00,Wunderground v.1.15,2013-11-11 05:36:00,
2013-11-10 23:41:00,44.9,24.8,30.26,East,94,6.0,7.0,45,0.00,,,0.00,Wunderground v.1.15,2013-11-11 05:41:00,
2013-11-10 23:46:00,44.5,24.5,30.26,ENE,76,7.0,10.0,45,0.00,,,0.00,Wunderground v.1.15,2013-11-11 05:46:00,
2013-11-10 23:51:00,44.1,24.1,30.26,ENE,66,4.0,11.0,45,0.00,,,0.00,Wunderground v.1.15,2013-11-11 05:51:00,
2013-11-10 23:56:00,43.6,24.2,30.26,SE,132,8.0,11.0,46,0.00,,,0.00,Wunderground v.1.15,2013-11-11 05:56:00,